Time,TemperatureF,DewpointF,PressureIn,WindDirection,WindDirectionDegrees,WindSpeedMPH,WindSpeedGustMPH,Humidity,HourlyPrecipIn,Conditions,Clouds,dailyrainin,SoftwareType,DateUTC
2013-06-12 00:02:00,72.3,48.0,25.48,ESE,112,12.8,12.8,42,0.00,,---,0.00,VWS V14.01,2013-06-12 05:02:00,
2013-06-12 00:07:00,72.1,48.4,25.48,ESE,112,13.9,13.9,43,0.00,,---,0.00,VWS V14.01,2013-06-12 05:07:00,
2013-06-12 00:12:00,72.1,49.0,25.48,ESE,112,10.1,11.0,44,0.00,,---,0.00,VWS V14.01,2013-06-12 05:12:00,
2013-06-12 00:17:00,71.8,48.7,25.48,ESE,112,10.3,13.2,44,0.00,,---,0.00,VWS V14.01,2013-06-12 05:17:00,
2013-06-12 00:22:00,71.8,49.3,25.48,ESE,112,10.5,10.5,45,0.00,,---,0.00,VWS V14.01,2013-06-12 05:22:00,
2013-06-12 00:27:00,71.8,49.9,25.48,SE,135,12.5,12.5,46,0.00,,---,0.00,VWS V14.01,2013-06-12 05:27:00,
2013-06-12 00:32:00,71.6,49.8,25.48,SE,135,6.0,6.0,46,0.00,,---,0.00,VWS V14.01,2013-06-12 05:32:00,
2013-06-12 00:37:00,71.2,50.0,25.48,SSE,158,6.5,13.0,47,0.00,,---,0.00,VWS V14.01,2013-06-12 05:37:00,
2013-06-12 00:42:00,71.2,50.6,25.48,SSE,158,8.1,8.1,48,0.00,,---,0.00,VWS V14.01,2013-06-12 05:42:00,
2013-06-12 00:47:00,71.2,50.6,25.48,SSE,158,9.0,9.0,48,0.00,,---,0.00,VWS V14.01,2013-06-12 05:47:00,
2013-06-12 00:52:00,71.1,49.8,25.48,ESE,112,6.3,7.8,47,0.00,,---,0.00,VWS V14.01,2013-06-12 05:52:00,
2013-06-12 00:57:00,71.1,49.8,25.48,SSE,158,8.1,8.5,47,0.00,,---,0.00,VWS V14.01,2013-06-12 05:57:00,
2013-06-12 01:02:00,70.7,49.5,25.48,SSE,158,7.2,7.2,47,0.00,,---,0.00,VWS V14.01,2013-06-12 06:02:00,
2013-06-12 01:07:00,70.5,49.3,25.48,SSE,158,8.5,8.5,47,0.00,,---,0.00,VWS V14.01,2013-06-12 06:07:00,
2013-06-12 01:12:00,70.3,49.2,25.48,SSE,158,5.6,11.0,47,0.00,,---,0.00,VWS V14.01,2013-06-12 06:12:00,
2013-06-12 01:17:00,70.5,49.9,25.48,SE,135,10.7,10.7,48,0.00,,---,0.00,VWS V14.01,2013-06-12 06:17:00,
2013-06-12 01:22:00,70.5,49.9,25.48,SSE,158,13.2,13.2,48,0.00,,---,0.00,VWS V14.01,2013-06-12 06:22:00,
2013-06-12 01:27:00,70.7,50.1,25.48,SE,135,7.6,7.6,48,0.00,,---,0.00,VWS V14.01,2013-06-12 06:27:00,
2013-06-12 01:32:00,70.7,49.5,25.48,SE,135,8.1,10.1,47,0.00,,---,0.00,VWS V14.01,2013-06-12 06:32:00,
2013-06-12 01:37:00,70.7,49.5,25.48,SSE,158,7.8,7.8,47,0.00,,---,0.00,VWS V14.01,2013-06-12 06:37:00,
2013-06-12 01:42:00,70.7,50.1,25.48,SE,135,10.1,10.1,48,0.00,,---,0.00,VWS V14.01,2013-06-12 06:42:00,
2013-06-12 01:47:00,70.5,49.9,25.48,SE,135,9.0,9.0,48,0.00,,---,0.00,VWS V14.01,2013-06-12 06:47:00,
2013-06-12 01:52:00,70.3,50.3,25.48,SSE,158,6.0,12.1,49,0.00,,---,0.00,VWS V14.01,2013-06-12 06:52:00,
2013-06-12 01:57:00,70.3,50.3,25.48,SSW,202,11.0,11.0,49,0.00,,---,0.00,VWS V14.01,2013-06-12 06:57:00,
2013-06-12 02:02:00,70.3,49.7,25.48,SSE,158,13.2,13.2,48,0.00,,---,0.00,VWS V14.01,2013-06-12 07:02:00,
2013-06-12 02:07:00,70.7,50.1,25.48,SE,135,12.3,15.2,48,0.00,,---,0.00,VWS V14.01,2013-06-12 07:07:00,
2013-06-12 02:12:00,70.5,50.5,25.48,South,180,10.5,10.5,49,0.00,,---,0.00,VWS V14.01,2013-06-12 07:12:00,
2013-06-12 02:17:00,70.5,50.5,25.48,SE,135,13.0,13.0,49,0.00,,---,0.00,VWS V14.01,2013-06-12 07:17:00,
2013-06-12 02:22:00,70.2,50.7,25.48,SSE,158,12.1,12.1,50,0.00,,---,0.00,VWS V14.01,2013-06-12 07:22:00,
2013-06-12 02:27:00,70.0,50.5,25.48,SE,135,13.6,17.2,50,0.00,,---,0.00,VWS V14.01,2013-06-12 07:27:00,
2013-06-12 02:32:00,69.8,51.4,25.51,ENE,68,13.2,13.2,52,0.00,,---,0.00,VWS V14.01,2013-06-12 07:32:00,
2013-06-12 02:37:00,70.0,51.0,25.51,SE,135,10.7,10.7,51,0.00,,---,0.00,VWS V14.01,2013-06-12 07:37:00,
2013-06-12 02:42:00,69.6,51.2,25.51,SE,135,13.0,13.0,52,0.00,,---,0.00,VWS V14.01,2013-06-12 07:42:00,
2013-06-12 02:47:00,69.8,51.4,25.48,SE,135,12.5,12.5,52,0.00,,---,0.00,VWS V14.01,2013-06-12 07:47:00,
2013-06-12 02:52:00,69.8,51.4,25.48,SSE,158,8.1,8.5,52,0.00,,---,0.00,VWS V14.01,2013-06-12 07:52:00,
2013-06-12 02:57:00,69.4,51.6,25.48,SSE,158,9.6,9.6,53,0.00,,---,0.00,VWS V14.01,2013-06-12 07:57:00,
2013-06-12 03:02:00,69.4,51.1,25.48,SE,135,11.0,11.0,52,0.00,,---,0.00,VWS V14.01,2013-06-12 08:02:00,
2013-06-12 03:07:00,69.6,51.8,25.48,SE,135,5.8,7.8,53,0.00,,---,0.00,VWS V14.01,2013-06-12 08:07:00,
2013-06-12 03:12:00,69.1,51.8,25.48,SSE,158,8.1,10.5,54,0.00,,---,0.00,VWS V14.01,2013-06-12 08:12:00,
2013-06-12 03:17:00,69.1,51.8,25.48,SE,135,8.7,8.7,54,0.00,,---,0.00,VWS V14.01,2013-06-12 08:17:00,
2013-06-12 03:22:00,68.7,51.9,25.48,SE,135,13.2,15.7,55,0.00,,---,0.00,VWS V14.01,2013-06-12 08:22:00,
2013-06-12 03:27:00,68.7,51.9,25.48,SE,135,6.9,9.6,55,0.00,,---,0.00,VWS V14.01,2013-06-12 08:27:00,
2013-06-12 03:32:00,68.7,51.9,25.48,SE,135,8.7,10.5,55,0.00,,---,0.00,VWS V14.01,2013-06-12 08:32:00,
2013-06-12 03:37:00,68.7,51.9,25.48,SE,135,6.3,6.3,55,0.00,,---,0.00,VWS V14.01,2013-06-12 08:37:00,
2013-06-12 03:42:00,68.9,52.1,25.48,South,180,7.4,7.6,55,0.00,,---,0.00,VWS V14.01,2013-06-12 08:42:00,
2013-06-12 03:47:00,68.5,51.8,25.48,SE,135,7.8,7.8,55,0.00,,---,0.00,VWS V14.01,2013-06-12 08:47:00,
2013-06-12 03:52:00,68.4,52.1,25.48,SE,135,7.8,7.8,56,0.00,,---,0.00,VWS V14.01,2013-06-12 08:52:00,
2013-06-12 03:57:00,68.0,52.2,25.48,ESE,112,5.4,5.4,57,0.00,,---,0.00,VWS V14.01,2013-06-12 08:57:00,
2013-06-12 04:02:00,67.8,52.5,25.48,ESE,112,2.9,6.0,58,0.00,,---,0.00,VWS V14.01,2013-06-12 09:02:00,
2013-06-12 04:07:00,67.8,53.0,25.48,SE,135,7.6,7.6,59,0.00,,---,0.00,VWS V14.01,2013-06-12 09:07:00,
2013-06-12 04:12:00,68.0,52.2,25.48,SSE,158,9.8,9.8,57,0.00,,---,0.00,VWS V14.01,2013-06-12 09:12:00,
2013-06-12 04:17:00,67.8,53.0,25.48,South,180,12.8,12.8,59,0.00,,---,0.00,VWS V14.01,2013-06-12 09:17:00,
2013-06-12 04:22:00,67.6,53.3,25.48,SSE,158,8.5,9.0,60,0.00,,---,0.00,VWS V14.01,2013-06-12 09:22:00,
2013-06-12 04:27:00,67.6,53.7,25.48,SSE,158,10.7,11.2,61,0.00,,---,0.00,VWS V14.01,2013-06-12 09:27:00,
2013-06-12 04:32:00,67.6,53.7,25.48,SSE,158,11.4,12.5,61,0.00,,---,0.00,VWS V14.01,2013-06-12 09:32:00,
2013-06-12 04:37:00,67.6,53.7,25.48,SSE,158,11.2,13.0,61,0.00,,---,0.00,VWS V14.01,2013-06-12 09:37:00,
2013-06-12 04:42:00,67.5,53.6,25.48,SE,135,12.3,14.5,61,0.00,,---,0.00,VWS V14.01,2013-06-12 09:42:00,
2013-06-12 04:47:00,67.6,53.3,25.48,SE,135,12.1,14.8,60,0.00,,---,0.00,VWS V14.01,2013-06-12 09:47:00,
2013-06-12 04:52:00,67.5,53.1,25.48,SE,135,9.8,13.9,60,0.00,,---,0.00,VWS V14.01,2013-06-12 09:52:00,
2013-06-12 04:57:00,67.5,52.7,25.48,SE,135,10.1,10.7,59,0.00,,---,0.00,VWS V14.01,2013-06-12 09:57:00,
2013-06-12 05:02:00,67.5,52.7,25.51,SSE,158,6.7,9.4,59,0.00,,---,0.00,VWS V14.01,2013-06-12 10:02:00,
2013-06-12 05:07:00,67.5,52.7,25.51,ESE,112,10.7,10.7,59,0.00,,---,0.00,VWS V14.01,2013-06-12 10:07:00,
2013-06-12 05:12:00,67.5,52.7,25.51,SSE,158,10.7,11.2,59,0.00,,---,0.00,VWS V14.01,2013-06-12 10:12:00,
2013-06-12 05:17:00,67.3,52.5,25.48,South,180,6.9,9.8,59,0.00,,---,0.00,VWS V14.01,2013-06-12 10:17:00,
2013-06-12 05:22:00,67.3,52.9,25.48,SSE,158,8.1,10.3,60,0.00,,---,0.00,VWS V14.01,2013-06-12 10:22:00,
2013-06-12 05:27:00,67.3,52.9,25.48,SSE,158,9.8,12.1,60,0.00,,---,0.00,VWS V14.01,2013-06-12 10:27:00,
2013-06-12 05:32:00,67.1,52.8,25.48,SW,225,4.7,4.7,60,0.00,,---,0.00,VWS V14.01,2013-06-12 10:32:00,
2013-06-12 05:37:00,67.5,52.7,25.48,SW,225,13.4,13.4,59,0.00,,---,0.00,VWS V14.01,2013-06-12 10:37:00,
2013-06-12 05:42:00,67.8,52.0,25.48,South,180,5.4,6.0,57,0.00,,---,0.00,VWS V14.01,2013-06-12 10:42:00,
2013-06-12 05:47:00,67.6,51.9,25.51,SSW,202,2.0,3.4,57,0.00,,---,0.00,VWS V14.01,2013-06-12 10:47:00,
2013-06-12 05:52:00,66.7,50.6,25.51,SW,225,0.0,2.5,56,0.00,,---,0.00,VWS V14.01,2013-06-12 10:52:00,
2013-06-12 05:57:00,66.7,51.5,25.51,SW,225,1.6,3.8,58,0.00,,---,0.00,VWS V14.01,2013-06-12 10:57:00,
2013-06-12 06:02:00,66.9,52.1,25.48,SW,225,4.7,4.7,59,0.00,,---,0.00,VWS V14.01,2013-06-12 11:02:00,
2013-06-12 06:07:00,66.7,51.5,25.48,SW,225,0.0,2.0,58,0.00,,---,0.00,VWS V14.01,2013-06-12 11:07:00,
2013-06-12 06:12:00,66.2,50.5,25.48,SW,225,0.0,2.2,57,0.00,,---,0.00,VWS V14.01,2013-06-12 11:12:00,
2013-06-12 06:17:00,65.7,50.5,25.48,SW,225,0.0,0.0,58,0.00,,---,0.00,VWS V14.01,2013-06-12 11:17:00,
2013-06-12 06:22:00,65.8,51.6,25.48,SSE,158,6.3,6.3,60,0.00,,---,0.00,VWS V14.01,2013-06-12 11:22:00,
2013-06-12 06:27:00,66.6,53.6,25.48,SSE,158,5.4,5.8,63,0.00,,---,0.00,VWS V14.01,2013-06-12 11:27:00,
2013-06-12 06:32:00,66.2,53.2,25.45,SSE,158,4.3,6.0,63,0.00,,---,0.00,VWS V14.01,2013-06-12 11:32:00,
2013-06-12 06:37:00,66.2,53.7,25.45,SSE,158,7.8,10.7,64,0.00,,---,0.00,VWS V14.01,2013-06-12 11:37:00,
2013-06-12 06:42:00,66.6,53.6,25.45,SSW,202,2.7,7.2,63,0.00,,---,0.00,VWS V14.01,2013-06-12 11:42:00,
2013-06-12 06:47:00,66.7,53.8,25.48,South,180,6.5,7.2,63,0.00,,---,0.00,VWS V14.01,2013-06-12 11:47:00,
2013-06-12 06:52:00,66.7,53.8,25.48,South,180,3.4,7.8,63,0.00,,---,0.00,VWS V14.01,2013-06-12 11:52:00,
2013-06-12 06:57:00,66.7,54.2,25.48,South,180,4.0,7.4,64,0.00,,---,0.00,VWS V14.01,2013-06-12 11:57:00,
2013-06-12 07:02:00,66.7,54.2,25.48,South,180,3.8,8.7,64,0.00,,---,0.00,VWS V14.01,2013-06-12 12:02:00,
2013-06-12 07:07:00,66.7,54.2,25.48,SSW,202,3.4,3.4,64,0.00,,---,0.00,VWS V14.01,2013-06-12 12:07:00,
2013-06-12 07:12:00,67.1,53.7,25.48,South,180,2.5,3.8,62,0.00,,---,0.00,VWS V14.01,2013-06-12 12:12:00,
2013-06-12 07:17:00,67.3,53.8,25.48,South,180,2.9,3.8,62,0.00,,---,0.00,VWS V14.01,2013-06-12 12:17:00,
2013-06-12 07:22:00,67.6,54.2,25.48,South,180,2.5,2.5,62,0.00,,---,0.00,VWS V14.01,2013-06-12 12:22:00,
2013-06-12 07:27:00,68.5,53.7,25.48,SSW,202,2.2,2.2,59,0.00,,---,0.00,VWS V14.01,2013-06-12 12:27:00,
2013-06-12 07:32:00,68.9,53.1,25.48,SE,135,2.9,2.9,57,0.00,,---,0.00,VWS V14.01,2013-06-12 12:32:00,
2013-06-12 07:37:00,69.8,53.4,25.48,SSE,158,0.0,0.0,56,0.00,,---,0.00,VWS V14.01,2013-06-12 12:37:00,
2013-06-12 07:42:00,70.7,52.2,25.48,WSW,248,3.6,4.3,52,0.00,,---,0.00,VWS V14.01,2013-06-12 12:42:00,
2013-06-12 07:47:00,71.1,51.5,25.51,SW,225,3.1,3.4,50,0.00,,---,0.00,VWS V14.01,2013-06-12 12:47:00,
2013-06-12 07:53:00,71.6,51.5,25.51,SW,225,2.5,4.0,49,0.00,,---,0.00,VWS V14.01,2013-06-12 12:53:00,
2013-06-12 07:58:00,72.1,50.8,25.51,SW,225,2.0,3.6,47,0.00,,---,0.00,VWS V14.01,2013-06-12 12:58:00,
2013-06-12 08:03:00,72.7,51.3,25.51,SE,135,3.1,3.1,47,0.00,,---,0.00,VWS V14.01,2013-06-12 13:03:00,
2013-06-12 08:08:00,73.6,51.0,25.51,SE,135,3.6,3.6,45,0.00,,---,0.00,VWS V14.01,2013-06-12 13:08:00,
2013-06-12 08:13:00,74.3,50.4,25.51,SSE,158,2.5,4.0,43,0.00,,---,0.00,VWS V14.01,2013-06-12 13:13:00,
2013-06-12 08:18:00,74.5,49.9,25.51,SSE,158,2.9,4.0,42,0.00,,---,0.00,VWS V14.01,2013-06-12 13:18:00,
2013-06-12 08:23:00,74.8,49.6,25.51,SSW,202,5.4,5.4,41,0.00,,---,0.00,VWS V14.01,2013-06-12 13:23:00,
2013-06-12 08:28:00,74.7,50.1,25.51,South,180,2.9,3.4,42,0.00,,---,0.00,VWS V14.01,2013-06-12 13:28:00,
2013-06-12 08:33:00,75.9,51.2,25.51,SSE,158,7.6,7.6,42,0.00,,---,0.00,VWS V14.01,2013-06-12 13:33:00,
2013-06-12 08:38:00,75.7,50.4,25.51,South,180,3.6,5.6,41,0.00,,---,0.00,VWS V14.01,2013-06-12 13:38:00,
2013-06-12 08:43:00,75.2,50.6,25.51,SE,135,7.2,9.6,42,0.00,,---,0.00,VWS V14.01,2013-06-12 13:43:00,
2013-06-12 08:48:00,75.4,50.7,25.51,SE,135,10.7,10.7,42,0.00,,---,0.00,VWS V14.01,2013-06-12 13:48:00,
2013-06-12 08:53:00,75.7,50.4,25.51,SE,135,7.6,7.6,41,0.00,,---,0.00,VWS V14.01,2013-06-12 13:53:00,
2013-06-12 08:58:00,76.6,51.2,25.51,SSE,158,8.5,8.5,41,0.00,,---,0.00,VWS V14.01,2013-06-12 13:58:00,
2013-06-12 09:03:00,76.6,51.2,25.51,SSE,158,3.8,3.8,41,0.00,,---,0.00,VWS V14.01,2013-06-12 14:03:00,
2013-06-12 09:08:00,77.2,51.0,25.51,SSE,158,8.1,8.1,40,0.00,,---,0.00,VWS V14.01,2013-06-12 14:08:00,
2013-06-12 09:13:00,78.4,50.0,25.51,South,180,7.8,8.1,37,0.00,,---,0.00,VWS V14.01,2013-06-12 14:13:00,
2013-06-12 09:18:00,79.2,49.9,25.51,South,180,5.8,5.8,36,0.00,,---,0.00,VWS V14.01,2013-06-12 14:18:00,
2013-06-12 09:23:00,79.7,49.7,25.51,South,180,4.9,4.9,35,0.00,,---,0.00,VWS V14.01,2013-06-12 14:23:00,
2013-06-12 09:28:00,80.6,48.9,25.51,South,180,3.8,4.9,33,0.00,,---,0.00,VWS V14.01,2013-06-12 14:28:00,
2013-06-12 09:33:00,81.1,47.7,25.48,South,180,3.8,3.8,31,0.00,,---,0.00,VWS V14.01,2013-06-12 14:33:00,
2013-06-12 09:38:00,81.3,48.7,25.48,SE,135,7.8,7.8,32,0.00,,---,0.00,VWS V14.01,2013-06-12 14:38:00,
2013-06-12 09:43:00,81.0,48.4,25.48,SE,135,5.4,5.4,32,0.00,,---,0.00,VWS V14.01,2013-06-12 14:43:00,
2013-06-12 09:48:00,81.3,47.8,25.51,South,180,9.4,12.3,31,0.00,,---,0.00,VWS V14.01,2013-06-12 14:48:00,
2013-06-12 09:53:00,81.5,48.0,25.51,South,180,4.3,6.3,31,0.00,,---,0.00,VWS V14.01,2013-06-12 14:53:00,
2013-06-12 09:58:00,81.7,48.1,25.51,SE,135,9.4,9.4,31,0.00,,---,0.00,VWS V14.01,2013-06-12 14:58:00,
2013-06-12 10:03:00,81.9,48.3,25.54,SSE,158,10.5,10.5,31,0.00,,---,0.00,VWS V14.01,2013-06-12 15:03:00,
2013-06-12 10:08:00,82.4,47.9,25.54,SSE,158,5.4,7.4,30,0.00,,---,0.00,VWS V14.01,2013-06-12 15:08:00,
2013-06-12 10:13:00,81.9,47.4,25.54,ESE,112,10.7,10.7,30,0.00,,---,0.00,VWS V14.01,2013-06-12 15:13:00,
2013-06-12 10:18:00,83.3,47.8,25.51,SSE,158,12.1,12.1,29,0.00,,---,0.00,VWS V14.01,2013-06-12 15:18:00,
2013-06-12 10:23:00,84.0,48.4,25.51,SE,135,12.5,12.5,29,0.00,,---,0.00,VWS V14.01,2013-06-12 15:23:00,
2013-06-12 10:28:00,84.4,48.7,25.51,SSE,158,12.1,12.1,29,0.00,,---,0.00,VWS V14.01,2013-06-12 15:28:00,
2013-06-12 10:33:00,84.2,46.6,25.48,South,180,8.5,8.5,27,0.00,,---,0.00,VWS V14.01,2013-06-12 15:33:00,
2013-06-12 10:38:00,84.0,47.4,25.48,South,180,3.8,3.8,28,0.00,,---,0.00,VWS V14.01,2013-06-12 15:38:00,
2013-06-12 10:43:00,85.1,46.4,25.48,SSE,158,7.6,7.8,26,0.00,,---,0.00,VWS V14.01,2013-06-12 15:43:00,
2013-06-12 10:48:00,86.5,47.6,25.48,SSE,158,3.8,6.0,26,0.00,,---,0.00,VWS V14.01,2013-06-12 15:48:00,
2013-06-12 10:53:00,86.9,45.8,25.48,SE,135,5.6,8.1,24,0.00,,---,0.00,VWS V14.01,2013-06-12 15:53:00,
2013-06-12 10:58:00,87.1,46.0,25.48,South,180,8.7,9.6,24,0.00,,---,0.00,VWS V14.01,2013-06-12 15:58:00,
2013-06-12 11:03:00,86.9,44.7,25.48,SSE,158,6.5,7.4,23,0.00,,---,0.00,VWS V14.01,2013-06-12 16:03:00,
2013-06-12 11:08:00,87.6,44.1,25.48,SE,135,3.8,7.4,22,0.00,,---,0.00,VWS V14.01,2013-06-12 16:08:00,
2013-06-12 11:13:00,87.4,44.0,25.48,SW,225,5.4,7.2,22,0.00,,---,0.00,VWS V14.01,2013-06-12 16:13:00,
2013-06-12 11:18:00,89.1,44.1,25.48,SSW,202,8.1,8.1,21,0.00,,---,0.00,VWS V14.01,2013-06-12 16:18:00,
2013-06-12 11:23:00,89.1,44.1,25.48,SW,225,6.7,6.7,21,0.00,,---,0.00,VWS V14.01,2013-06-12 16:23:00,
2013-06-12 11:28:00,89.6,43.3,25.48,SE,135,5.4,5.4,20,0.00,,---,0.00,VWS V14.01,2013-06-12 16:28:00,
2013-06-12 11:33:00,89.6,43.3,25.48,SW,225,3.1,3.4,20,0.00,,---,0.00,VWS V14.01,2013-06-12 16:33:00,
2013-06-12 11:38:00,90.1,42.4,25.48,SE,135,7.6,8.5,19,0.00,,---,0.00,VWS V14.01,2013-06-12 16:38:00,
2013-06-12 11:43:00,90.9,43.0,25.48,East,90,1.3,6.9,19,0.00,,---,0.00,VWS V14.01,2013-06-12 16:43:00,
2013-06-12 11:48:00,90.9,43.0,25.48,SSE,158,8.7,8.7,19,0.00,,---,0.00,VWS V14.01,2013-06-12 16:48:00,
2013-06-12 11:53:00,91.0,41.7,25.48,ENE,68,7.8,7.8,18,0.00,,---,0.00,VWS V14.01,2013-06-12 16:53:00,
2013-06-12 11:58:00,92.1,42.6,25.48,SW,225,4.3,5.6,18,0.00,,---,0.00,VWS V14.01,2013-06-12 16:58:00,
2013-06-12 12:03:00,93.7,42.4,25.48,SE,135,1.1,1.1,17,0.00,,---,0.00,VWS V14.01,2013-06-12 17:03:00,
2013-06-12 12:08:00,93.4,42.1,25.48,ESE,112,5.6,5.6,17,0.00,,---,0.00,VWS V14.01,2013-06-12 17:08:00,
2013-06-12 12:13:00,94.8,43.3,25.48,East,90,6.3,6.3,17,0.00,,---,0.00,VWS V14.01,2013-06-12 17:13:00,
2013-06-12 12:18:00,94.1,42.7,25.48,NE,45,9.6,9.6,17,0.00,,---,0.00,VWS V14.01,2013-06-12 17:18:00,
2013-06-12 12:23:00,92.8,41.7,25.48,ESE,112,5.8,7.4,17,0.00,,---,0.00,VWS V14.01,2013-06-12 17:23:00,
2013-06-12 12:28:00,93.4,40.5,25.48,SE,135,6.0,6.0,16,0.00,,---,0.00,VWS V14.01,2013-06-12 17:28:00,
2013-06-12 12:33:00,95.0,41.8,25.48,East,90,4.3,4.3,16,0.00,,---,0.00,VWS V14.01,2013-06-12 17:33:00,
2013-06-12 12:38:00,95.2,42.0,25.48,ESE,112,6.3,6.3,16,0.00,,---,0.00,VWS V14.01,2013-06-12 17:38:00,
2013-06-12 12:43:00,95.0,41.8,25.48,ESE,112,3.8,5.4,16,0.00,,---,0.00,VWS V14.01,2013-06-12 17:43:00,
2013-06-12 12:48:00,96.1,42.7,25.48,WSW,248,3.1,3.1,16,0.00,,---,0.00,VWS V14.01,2013-06-12 17:48:00,
2013-06-12 12:53:00,96.8,37.9,25.48,East,90,5.4,5.4,13,0.00,,---,0.00,VWS V14.01,2013-06-12 17:53:00,
2013-06-12 12:58:00,95.0,38.4,25.48,ENE,68,6.3,10.1,14,0.00,,---,0.00,VWS V14.01,2013-06-12 17:58:00,
2013-06-12 13:03:00,96.8,37.9,25.48,ENE,68,5.4,5.4,13,0.00,,---,0.00,VWS V14.01,2013-06-12 18:03:00,
2013-06-12 13:08:00,97.0,38.0,25.48,NNW,338,3.8,4.7,13,0.00,,---,0.00,VWS V14.01,2013-06-12 18:08:00,
2013-06-12 13:13:00,99.3,39.9,25.48,NNE,22,13.4,13.4,13,0.00,,---,0.00,VWS V14.01,2013-06-12 18:13:00,
2013-06-12 13:18:00,95.5,38.8,25.48,North,0,8.7,10.3,14,0.00,,---,0.00,VWS V14.01,2013-06-12 18:18:00,
2013-06-12 13:23:00,98.1,38.9,25.48,NNW,338,3.4,5.4,13,0.00,,---,0.00,VWS V14.01,2013-06-12 18:23:00,
2013-06-12 13:28:00,98.8,39.5,25.48,NW,315,1.1,3.6,13,0.00,,---,0.00,VWS V14.01,2013-06-12 18:28:00,
2013-06-12 13:33:00,99.5,40.0,25.48,SE,135,4.9,4.9,13,0.00,,---,0.00,VWS V14.01,2013-06-12 18:33:00,
2013-06-12 13:38:00,98.8,32.8,25.48,ENE,68,9.8,11.9,10,0.00,,---,0.00,VWS V14.01,2013-06-12 18:38:00,
2013-06-12 13:43:00,98.4,34.9,25.48,WNW,292,4.7,4.7,11,0.00,,---,0.00,VWS V14.01,2013-06-12 18:43:00,
2013-06-12 13:48:00,97.0,33.8,25.48,WNW,292,8.1,8.5,11,0.00,,---,0.00,VWS V14.01,2013-06-12 18:48:00,
2013-06-12 13:53:00,95.7,32.9,25.48,NW,315,8.1,10.5,11,0.00,,---,0.00,VWS V14.01,2013-06-12 18:53:00,
2013-06-12 13:58:00,96.3,33.3,25.48,NW,315,11.0,12.8,11,0.00,,---,0.00,VWS V14.01,2013-06-12 18:58:00,
2013-06-12 14:03:00,96.4,33.4,25.48,ENE,68,8.1,9.2,11,0.00,,---,0.00,VWS V14.01,2013-06-12 19:03:00,
2013-06-12 14:08:00,98.2,34.8,25.48,WNW,292,4.3,6.0,11,0.00,,---,0.00,VWS V14.01,2013-06-12 19:08:00,
2013-06-12 14:13:00,95.7,32.9,25.48,NW,315,6.5,9.8,11,0.00,,---,0.00,VWS V14.01,2013-06-12 19:13:00,
2013-06-12 14:18:00,95.0,38.4,25.48,NNW,338,10.1,14.8,14,0.00,,---,0.00,VWS V14.01,2013-06-12 19:18:00,
2013-06-12 14:23:00,94.3,37.8,25.48,NW,315,6.0,10.7,14,0.00,,---,0.00,VWS V14.01,2013-06-12 19:23:00,
2013-06-12 14:28:00,95.5,38.8,25.48,ESE,112,3.6,4.9,14,0.00,,---,0.00,VWS V14.01,2013-06-12 19:28:00,
2013-06-12 14:33:00,97.0,38.0,25.45,ESE,112,7.4,7.4,13,0.00,,---,0.00,VWS V14.01,2013-06-12 19:33:00,
2013-06-12 14:38:00,94.8,38.2,25.45,East,90,6.0,10.5,14,0.00,,---,0.00,VWS V14.01,2013-06-12 19:38:00,
2013-06-12 14:43:00,96.6,39.7,25.45,ENE,68,8.1,8.7,14,0.00,,---,0.00,VWS V14.01,2013-06-12 19:43:00,
2013-06-12 14:48:00,97.9,38.8,25.45,South,180,2.2,3.4,13,0.00,,---,0.00,VWS V14.01,2013-06-12 19:48:00,
2013-06-12 14:53:00,98.2,39.0,25.45,NE,45,10.5,11.9,13,0.00,,---,0.00,VWS V14.01,2013-06-12 19:53:00,
2013-06-12 14:58:00,98.2,34.8,25.45,NNW,338,7.6,10.3,11,0.00,,---,0.00,VWS V14.01,2013-06-12 19:58:00,
2013-06-12 15:03:00,98.2,39.0,25.42,ENE,68,5.4,7.8,13,0.00,,---,0.00,VWS V14.01,2013-06-12 20:03:00,
2013-06-12 15:08:00,97.9,38.8,25.42,ENE,68,6.5,9.8,13,0.00,,---,0.00,VWS V14.01,2013-06-12 20:08:00,
2013-06-12 15:13:00,99.7,33.5,25.42,North,0,11.2,11.2,10,0.00,,---,0.00,VWS V14.01,2013-06-12 20:13:00,
2013-06-12 15:18:00,98.6,32.7,25.42,NNE,22,12.5,12.5,10,0.00,,---,0.00,VWS V14.01,2013-06-12 20:18:00,
2013-06-12 15:23:00,98.8,32.8,25.42,North,0,6.9,8.7,10,0.00,,---,0.00,VWS V14.01,2013-06-12 20:23:00,
2013-06-12 15:28:00,99.5,33.4,25.42,NW,315,6.5,6.5,10,0.00,,---,0.00,VWS V14.01,2013-06-12 20:28:00,
2013-06-12 15:33:00,100.8,34.3,25.39,SSW,202,2.7,2.7,10,0.00,,---,0.00,VWS V14.01,2013-06-12 20:33:00,
2013-06-12 15:39:00,99.3,33.2,25.39,ENE,68,6.0,6.0,10,0.00,,---,0.00,VWS V14.01,2013-06-12 20:39:00,
2013-06-12 15:44:00,100.8,34.3,25.42,ESE,112,4.3,4.3,10,0.00,,---,0.00,VWS V14.01,2013-06-12 20:44:00,
2013-06-12 15:49:00,100.9,34.5,25.42,ENE,68,12.5,12.5,10,0.00,,---,0.00,VWS V14.01,2013-06-12 20:49:00,
2013-06-12 15:54:00,97.7,34.4,25.42,East,90,13.2,13.2,11,0.00,,---,0.00,VWS V14.01,2013-06-12 20:54:00,
2013-06-12 15:59:00,95.5,32.7,25.42,ENE,68,7.4,8.5,11,0.00,,---,0.00,VWS V14.01,2013-06-12 20:59:00,
2013-06-12 16:04:00,95.9,33.0,25.42,East,90,13.2,13.2,11,0.00,,---,0.00,VWS V14.01,2013-06-12 21:04:00,
2013-06-12 16:09:00,95.7,32.9,25.42,East,90,10.3,13.2,11,0.00,,---,0.00,VWS V14.01,2013-06-12 21:09:00,
2013-06-12 16:14:00,95.7,32.9,25.45,ESE,112,13.0,13.0,11,0.00,,---,0.00,VWS V14.01,2013-06-12 21:14:00,
2013-06-12 16:19:00,96.3,33.3,25.45,WNW,292,3.4,3.4,11,0.00,,---,0.00,VWS V14.01,2013-06-12 21:19:00,
2013-06-12 16:24:00,97.0,33.8,25.45,East,90,10.7,10.7,11,0.00,,---,0.00,VWS V14.01,2013-06-12 21:24:00,
2013-06-12 16:29:00,96.3,33.3,25.42,SE,135,9.2,9.2,11,0.00,,---,0.00,VWS V14.01,2013-06-12 21:29:00,
2013-06-12 16:34:00,96.4,39.5,25.42,ENE,68,9.2,9.2,14,0.00,,---,0.00,VWS V14.01,2013-06-12 21:34:00,
2013-06-12 16:39:00,95.7,39.0,25.42,ESE,112,8.1,8.1,14,0.00,,---,0.00,VWS V14.01,2013-06-12 21:39:00,
2013-06-12 16:44:00,97.5,38.5,25.42,NNE,22,3.8,3.8,13,0.00,,---,0.00,VWS V14.01,2013-06-12 21:44:00,
2013-06-12 16:49:00,96.6,39.7,25.42,ENE,68,14.1,14.1,14,0.00,,---,0.00,VWS V14.01,2013-06-12 21:49:00,
2013-06-12 16:54:00,97.9,34.5,25.42,East,90,3.8,6.5,11,0.00,,---,0.00,VWS V14.01,2013-06-12 21:54:00,
2013-06-12 16:59:00,96.1,39.2,25.42,ESE,112,13.2,13.2,14,0.00,,---,0.00,VWS V14.01,2013-06-12 21:59:00,
2013-06-12 17:04:00,95.2,38.5,25.42,East,90,13.0,13.0,14,0.00,,---,0.00,VWS V14.01,2013-06-12 22:04:00,
2013-06-12 17:09:00,95.2,38.5,25.42,ESE,112,8.1,8.1,14,0.00,,---,0.00,VWS V14.01,2013-06-12 22:09:00,
2013-06-12 17:14:00,94.6,38.1,25.42,East,90,10.3,13.2,14,0.00,,---,0.00,VWS V14.01,2013-06-12 22:14:00,
2013-06-12 17:19:00,93.6,37.3,25.42,ESE,112,12.8,12.8,14,0.00,,---,0.00,VWS V14.01,2013-06-12 22:19:00,
2013-06-12 17:24:00,94.8,38.2,25.42,East,90,12.1,12.1,14,0.00,,---,0.00,VWS V14.01,2013-06-12 22:24:00,
2013-06-12 17:29:00,93.7,37.4,25.42,ESE,112,8.5,11.9,14,0.00,,---,0.00,VWS V14.01,2013-06-12 22:29:00,
2013-06-12 17:34:00,94.6,38.1,25.42,SSE,158,11.0,11.0,14,0.00,,---,0.00,VWS V14.01,2013-06-12 22:34:00,
2013-06-12 17:39:00,95.9,39.1,25.42,SW,225,2.5,2.5,14,0.00,,---,0.00,VWS V14.01,2013-06-12 22:39:00,
2013-06-12 17:44:00,95.0,38.4,25.42,ESE,112,5.6,12.5,14,0.00,,---,0.00,VWS V14.01,2013-06-12 22:44:00,
2013-06-12 17:49:00,94.5,38.0,25.42,ESE,112,17.2,17.2,14,0.00,,---,0.00,VWS V14.01,2013-06-12 22:49:00,
2013-06-12 17:54:00,94.1,37.7,25.42,ESE,112,8.5,12.8,14,0.00,,---,0.00,VWS V14.01,2013-06-12 22:54:00,
2013-06-12 17:59:00,93.7,37.4,25.42,ESE,112,6.5,7.2,14,0.00,,---,0.00,VWS V14.01,2013-06-12 22:59:00,
2013-06-12 18:04:00,93.2,37.0,25.42,ESE,112,8.1,8.1,14,0.00,,---,0.00,VWS V14.01,2013-06-12 23:04:00,
2013-06-12 18:09:00,93.0,36.8,25.42,East,90,17.2,17.2,14,0.00,,---,0.00,VWS V14.01,2013-06-12 23:09:00,
2013-06-12 18:14:00,92.7,36.5,25.42,East,90,14.8,14.8,14,0.00,,---,0.00,VWS V14.01,2013-06-12 23:14:00,
2013-06-12 18:19:00,92.3,36.3,25.39,East,90,12.3,14.8,14,0.00,,---,0.00,VWS V14.01,2013-06-12 23:19:00,
2013-06-12 18:24:00,92.1,36.1,25.39,ESE,112,11.9,14.8,14,0.00,,---,0.00,VWS V14.01,2013-06-12 23:24:00,
2013-06-12 18:29:00,91.8,35.8,25.39,ESE,112,17.5,17.5,14,0.00,,---,0.00,VWS V14.01,2013-06-12 23:29:00,
2013-06-12 18:34:00,90.9,36.9,25.39,SE,135,17.5,17.5,15,0.00,,---,0.00,VWS V14.01,2013-06-12 23:34:00,
2013-06-12 18:39:00,91.0,37.0,25.39,ENE,68,11.0,11.0,15,0.00,,---,0.00,VWS V14.01,2013-06-12 23:39:00,
2013-06-12 18:44:00,90.7,39.9,25.39,East,90,13.6,13.6,17,0.00,,---,0.00,VWS V14.01,2013-06-12 23:44:00,
2013-06-12 18:49:00,90.3,41.1,25.39,SE,135,9.8,9.8,18,0.00,,---,0.00,VWS V14.01,2013-06-12 23:49:00,
2013-06-12 18:54:00,89.8,40.7,25.39,ESE,112,13.0,19.5,18,0.00,,---,0.00,VWS V14.01,2013-06-12 23:54:00,
2013-06-12 18:59:00,88.5,39.7,25.39,ESE,112,13.0,13.0,18,0.00,,---,0.00,VWS V14.01,2013-06-12 23:59:00,
2013-06-12 19:04:00,88.0,40.6,25.39,ESE,112,13.0,13.0,19,0.00,,---,0.00,VWS V14.01,2013-06-13 00:04:00,
2013-06-12 19:09:00,88.0,40.6,25.39,ESE,112,14.5,14.5,19,0.00,,---,0.00,VWS V14.01,2013-06-13 00:09:00,
2013-06-12 19:14:00,87.4,41.5,25.39,SE,135,15.7,15.7,20,0.00,,---,0.00,VWS V14.01,2013-06-13 00:14:00,
2013-06-12 19:19:00,86.7,42.2,25.39,SE,135,15.7,15.7,21,0.00,,---,0.00,VWS V14.01,2013-06-13 00:19:00,
2013-06-12 19:24:00,86.7,42.2,25.39,SE,135,15.7,15.7,21,0.00,,---,0.00,VWS V14.01,2013-06-13 00:24:00,
2013-06-12 19:29:00,86.5,43.2,25.39,SE,135,15.7,15.7,22,0.00,,---,0.00,VWS V14.01,2013-06-13 00:29:00,
2013-06-12 19:34:00,85.5,43.5,25.39,SE,135,15.7,15.7,23,0.00,,---,0.00,VWS V14.01,2013-06-13 00:34:00,
2013-06-12 19:39:00,84.6,43.8,25.39,SE,135,15.7,15.7,24,0.00,,---,0.00,VWS V14.01,2013-06-13 00:39:00,
2013-06-12 19:44:00,84.6,43.8,25.39,SE,135,15.7,15.7,24,0.00,,---,0.00,VWS V14.01,2013-06-13 00:44:00,
2013-06-12 19:49:00,84.0,45.5,25.42,SE,135,15.7,15.7,26,0.00,,---,0.00,VWS V14.01,2013-06-13 00:49:00,
2013-06-12 19:54:00,83.8,45.3,25.42,SE,135,15.7,15.7,26,0.00,,---,0.00,VWS V14.01,2013-06-13 00:54:00,
2013-06-12 19:59:00,83.5,47.0,25.42,SE,135,15.7,15.7,28,0.00,,---,0.00,VWS V14.01,2013-06-13 00:59:00,
2013-06-12 20:04:00,82.9,46.5,25.42,ESE,112,22.6,22.6,28,0.00,,---,0.00,VWS V14.01,2013-06-13 01:04:00,
2013-06-12 20:09:00,82.4,47.0,25.42,SE,135,13.0,19.7,29,0.00,,---,0.00,VWS V14.01,2013-06-13 01:09:00,
2013-06-12 20:14:00,81.9,47.4,25.42,ESE,112,23.5,23.5,30,0.00,,---,0.00,VWS V14.01,2013-06-13 01:14:00,
2013-06-12 20:19:00,81.5,47.1,25.42,ESE,112,18.1,18.1,30,0.00,,---,0.00,VWS V14.01,2013-06-13 01:19:00,
2013-06-12 20:24:00,81.3,47.0,25.42,ESE,112,18.1,18.1,30,0.00,,---,0.00,VWS V14.01,2013-06-13 01:24:00,
2013-06-12 20:29:00,80.8,46.5,25.42,ESE,112,17.2,17.2,30,0.00,,---,0.00,VWS V14.01,2013-06-13 01:29:00,
2013-06-12 20:34:00,80.4,47.0,25.42,ESE,112,17.2,17.2,31,0.00,,---,0.00,VWS V14.01,2013-06-13 01:34:00,
2013-06-12 20:39:00,80.1,46.7,25.42,SE,135,15.2,15.2,31,0.00,,---,0.00,VWS V14.01,2013-06-13 01:39:00,
2013-06-12 20:44:00,79.3,46.1,25.42,SE,135,15.2,15.2,31,0.00,,---,0.00,VWS V14.01,2013-06-13 01:44:00,
2013-06-12 20:49:00,79.0,46.6,25.42,SE,135,15.2,15.2,32,0.00,,---,0.00,VWS V14.01,2013-06-13 01:49:00,
2013-06-12 20:54:00,78.6,47.1,25.42,East,90,10.7,16.8,33,0.00,,---,0.00,VWS V14.01,2013-06-13 01:54:00,
2013-06-12 20:59:00,78.3,46.8,25.42,ESE,112,18.8,18.8,33,0.00,,---,0.00,VWS V14.01,2013-06-13 01:59:00,
2013-06-12 21:04:00,78.1,46.7,25.42,ESE,112,12.8,17.5,33,0.00,,---,0.00,VWS V14.01,2013-06-13 02:04:00,
2013-06-12 21:09:00,77.7,46.3,25.42,SE,135,10.7,13.0,33,0.00,,---,0.00,VWS V14.01,2013-06-13 02:09:00,
2013-06-12 21:14:00,77.5,47.0,25.42,ESE,112,11.0,12.5,34,0.00,,---,0.00,VWS V14.01,2013-06-13 02:14:00,
2013-06-12 21:19:00,77.2,47.4,25.42,ESE,112,11.0,11.0,35,0.00,,---,0.00,VWS V14.01,2013-06-13 02:19:00,
2013-06-12 21:24:00,77.2,48.2,25.42,ESE,112,12.5,13.0,36,0.00,,---,0.00,VWS V14.01,2013-06-13 02:24:00,
2013-06-12 21:29:00,76.8,48.6,25.42,SE,135,9.2,9.2,37,0.00,,---,0.00,VWS V14.01,2013-06-13 02:29:00,
2013-06-12 21:34:00,76.6,49.2,25.42,SE,135,9.2,9.2,38,0.00,,---,0.00,VWS V14.01,2013-06-13 02:34:00,
2013-06-12 21:39:00,76.5,49.0,25.42,SE,135,9.2,9.2,38,0.00,,---,0.00,VWS V14.01,2013-06-13 02:39:00,
2013-06-12 21:44:00,76.3,49.5,25.42,ESE,112,16.6,16.6,39,0.00,,---,0.00,VWS V14.01,2013-06-13 02:44:00,
2013-06-12 21:49:00,76.1,50.0,25.42,ESE,112,16.3,16.3,40,0.00,,---,0.00,VWS V14.01,2013-06-13 02:49:00,
2013-06-12 21:54:00,76.1,50.0,25.42,ESE,112,13.4,13.4,40,0.00,,---,0.00,VWS V14.01,2013-06-13 02:54:00,
2013-06-12 21:59:00,75.7,50.4,25.42,SE,135,17.5,17.5,41,0.00,,---,0.00,VWS V14.01,2013-06-13 02:59:00,
2013-06-12 22:04:00,75.7,50.4,25.42,SE,135,17.5,17.5,41,0.00,,---,0.00,VWS V14.01,2013-06-13 03:04:00,
2013-06-12 22:09:00,75.6,50.2,25.42,SE,135,17.5,17.5,41,0.00,,---,0.00,VWS V14.01,2013-06-13 03:09:00,
2013-06-12 22:14:00,75.4,50.7,25.45,SE,135,17.5,17.5,42,0.00,,---,0.00,VWS V14.01,2013-06-13 03:14:00,
2013-06-12 22:19:00,75.0,50.4,25.45,SE,135,17.5,17.5,42,0.00,,---,0.00,VWS V14.01,2013-06-13 03:19:00,
2013-06-12 22:24:00,75.0,50.4,25.45,SE,135,17.5,17.5,42,0.00,,---,0.00,VWS V14.01,2013-06-13 03:24:00,
2013-06-12 22:29:00,74.8,50.9,25.45,ESE,112,12.8,12.8,43,0.00,,---,0.00,VWS V14.01,2013-06-13 03:29:00,
2013-06-12 22:34:00,74.7,50.7,25.45,ESE,112,11.4,11.4,43,0.00,,---,0.00,VWS V14.01,2013-06-13 03:34:00,
2013-06-12 22:39:00,74.5,50.5,25.45,SE,135,12.5,12.5,43,0.00,,---,0.00,VWS V14.01,2013-06-13 03:39:00,
2013-06-12 22:44:00,74.5,50.5,25.45,East,90,16.1,16.1,43,0.00,,---,0.00,VWS V14.01,2013-06-13 03:44:00,
2013-06-12 22:49:00,74.3,50.4,25.48,ESE,112,17.0,17.0,43,0.00,,---,0.00,VWS V14.01,2013-06-13 03:49:00,
2013-06-12 22:54:00,74.3,50.4,25.48,ESE,112,12.5,21.5,43,0.00,,---,0.00,VWS V14.01,2013-06-13 03:54:00,
2013-06-12 22:59:00,73.9,50.1,25.48,ESE,112,12.5,12.5,43,0.00,,---,0.00,VWS V14.01,2013-06-13 03:59:00,
2013-06-12 23:01:00,74.1,50.2,25.48,ESE,112,12.8,15.4,43,0.00,,---,0.00,VWS V14.01,2013-06-13 04:01:00,
2013-06-12 23:06:00,73.9,50.1,25.48,ESE,112,16.1,16.1,43,0.00,,---,0.00,VWS V14.01,2013-06-13 04:06:00,
2013-06-12 23:11:00,73.8,49.9,25.48,ESE,112,20.1,21.9,43,0.00,,---,0.00,VWS V14.01,2013-06-13 04:11:00,
2013-06-12 23:16:00,73.6,49.7,25.51,ESE,112,16.1,17.2,43,0.00,,---,0.00,VWS V14.01,2013-06-13 04:16:00,
2013-06-12 23:21:00,73.6,50.3,25.51,ESE,112,19.9,24.4,44,0.00,,---,0.00,VWS V14.01,2013-06-13 04:21:00,
2013-06-12 23:26:00,73.4,50.2,25.51,SE,135,19.9,25.3,44,0.00,,---,0.00,VWS V14.01,2013-06-13 04:26:00,
2013-06-12 23:31:00,73.2,50.6,25.48,ESE,112,20.6,22.2,45,0.00,,---,0.00,VWS V14.01,2013-06-13 04:31:00,
2013-06-12 23:36:00,73.0,51.1,25.48,ESE,112,17.5,21.3,46,0.00,,---,0.00,VWS V14.01,2013-06-13 04:36:00,
2013-06-12 23:41:00,72.7,51.3,25.48,SE,135,17.0,17.0,47,0.00,,---,0.00,VWS V14.01,2013-06-13 04:41:00,
2013-06-12 23:46:00,72.7,51.9,25.45,ESE,112,22.8,22.8,48,0.00,,---,0.00,VWS V14.01,2013-06-13 04:46:00,
2013-06-12 23:51:00,72.5,51.7,25.45,ESE,112,17.9,22.4,48,0.00,,---,0.00,VWS V14.01,2013-06-13 04:51:00,
2013-06-12 23:56:00,72.3,51.5,25.45,SE,135,17.2,19.9,48,0.00,,---,0.00,VWS V14.01,2013-06-13 04:56:00,